• In United Kingdom
  • List of Countries
  • For 7 days
  • Water Temperature
  • Satellite Maps
  • Weather Map
  • Weather Widgets
  • user-avatar
    Login

    Hourly Weather Korsakovka

    Today, 20 April, Friday

    Time Temperature Precipitation Wind Pressure Humidity
    00:00 +2°C° 0 mm 3 mps 754 mmHg 87%
    01:00 +3°C° 0 mm 2 mps 754 mmHg 87%
    02:00 +2°C° 0 mm 3 mps 754 mmHg 89%
    03:00 +2°C° 0 mm 3 mps 754 mmHg 91%
    04:00 +2°C° 0 mm 3 mps 753 mmHg 93%
    05:00 +3°C° 0.1 mm 3 mps 753 mmHg 93%
    06:00 +3°C° 0.1 mm 3 mps 753 mmHg 93%
    07:00 +4°C° 0.1 mm 4 mps 753 mmHg 93%
    08:00 +6°C° 0 mm 4 mps 753 mmHg 87%
    09:00 +8°C° 0 mm 5 mps 753 mmHg 80%
    10:00 +8°C° 0 mm 5 mps 753 mmHg 77%
    11:00 +9°C° 0 mm 5 mps 753 mmHg 71%
    12:00 +11°C° 0 mm 6 mps 753 mmHg 66%
    13:00 +13°C° 0 mm 6 mps 753 mmHg 60%
    14:00 +13°C° 0 mm 6 mps 753 mmHg 59%
    15:00 +13°C° 0 mm 6 mps 752 mmHg 58%
    16:00 +12°C° 0 mm 7 mps 752 mmHg 57%
    17:00 +11°C° 0 mm 7 mps 752 mmHg 61%
    18:00 +10°C° 0 mm 7 mps 752 mmHg 66%
    19:00 +8°C° 0 mm 6 mps 752 mmHg 71%
    20:00 +8°C° 0 mm 6 mps 752 mmHg 74%
    21:00 +7°C° 0 mm 6 mps 752 mmHg 77%
    22:00 +6°C° 0 mm 5 mps 752 mmHg 80%
    23:00 +5°C° 0 mm 6 mps 752 mmHg 81%

    Tomorrow, 21 April, Saturday

    Time Temperature Precipitation Wind Pressure Humidity
    00:00 +5°C° 0 mm 6 mps 751 mmHg 82%
    01:00 +5°C° 0 mm 6 mps 751 mmHg 82%
    02:00 +5°C° 0 mm 7 mps 750 mmHg 82%
    03:00 +5°C° 0 mm 7 mps 749 mmHg 82%
    04:00 +5°C° 0 mm 8 mps 749 mmHg 82%
    05:00 +5°C° 0.4 mm 8 mps 748 mmHg 85%
    06:00 +5°C° 0.4 mm 8 mps 747 mmHg 88%
    07:00 +5°C° 0.4 mm 8 mps 747 mmHg 91%
    08:00 +5°C° 0.2 mm 8 mps 746 mmHg 88%
    09:00 +6°C° 0.2 mm 8 mps 745 mmHg 85%
    10:00 +6°C° 0.2 mm 8 mps 745 mmHg 83%
    11:00 +8°C° 0 mm 7 mps 744 mmHg 80%
    12:00 +9°C° 0 mm 7 mps 744 mmHg 77%
    13:00 +10°C° 0 mm 7 mps 744 mmHg 74%
    14:00 +10°C° 0 mm 6 mps 744 mmHg 75%
    15:00 +10°C° 0 mm 6 mps 745 mmHg 76%
    16:00 +10°C° 0 mm 6 mps 745 mmHg 77%
    17:00 +8°C° 0 mm 6 mps 746 mmHg 78%
    18:00 +7°C° 0 mm 6 mps 747 mmHg 79%
    19:00 +4°C° 0 mm 6 mps 748 mmHg 81%
    20:00 +3°C° 0 mm 6 mps 750 mmHg 83%
    21:00 +2°C° 0 mm 5 mps 751 mmHg 85%
    22:00 +1°C° 0 mm 5 mps 753 mmHg 87%
    23:00 +1°C° 0 mm 5 mps 754 mmHg 88%

    Day after tomorrow, 22 April, Sunday

    Time Temperature Precipitation Wind Pressure Humidity
    00:00 0°C° 0 mm 4 mps 755 mmHg 89%
    01:00 +1°C° 0 mm 3 mps 756 mmHg 90%
    02:00 +1°C° 0 mm 3 mps 756 mmHg 90%
    03:00 0°C° 0 mm 3 mps 757 mmHg 90%
    04:00 +1°C° 0 mm 2 mps 758 mmHg 91%
    05:00 +1°C° 0 mm 2 mps 758 mmHg 85%
    06:00 +2°C° 0 mm 2 mps 759 mmHg 79%
    07:00 +2°C° 0 mm 2 mps 759 mmHg 74%
    08:00 +4°C° 0 mm 2 mps 760 mmHg 67%
    09:00 +6°C° 0 mm 2 mps 760 mmHg 59%
    10:00 +7°C° 0 mm 3 mps 761 mmHg 52%
    11:00 +8°C° 0 mm 3 mps 761 mmHg 49%
    12:00 +8°C° 0 mm 3 mps 761 mmHg 46%
    13:00 +8°C° 0 mm 4 mps 761 mmHg 43%
    14:00 +8°C° 0 mm 4 mps 761 mmHg 42%
    15:00 +8°C° 0 mm 3 mps 761 mmHg 42%
    16:00 +8°C° 0 mm 3 mps 761 mmHg 42%
    17:00 +7°C° 0 mm 3 mps 761 mmHg 48%
    18:00 +5°C° 0 mm 3 mps 762 mmHg 54%
    19:00 +5°C° 0 mm 2 mps 762 mmHg 60%
    20:00 +3°C° 0 mm 3 mps 762 mmHg 63%
    21:00 +3°C° 0 mm 3 mps 762 mmHg 66%
    22:00 +2°C° 0 mm 3 mps 763 mmHg 69%
    23:00 +2°C° 0 mm 3 mps 763 mmHg 69%

    23 April, Monday

    Time Temperature Precipitation Wind Pressure Humidity
    00:00 +2°C° 0 mm 3 mps 763 mmHg 68%
    01:00 +2°C° 0 mm 2 mps 763 mmHg 68%
    02:00 +2°C° 0 mm 2 mps 763 mmHg 69%
    03:00 +2°C° 0 mm 1 mps 763 mmHg 70%
    04:00 +2°C° 0 mm 1 mps 763 mmHg 71%
    05:00 +2°C° 0 mm 1 mps 763 mmHg 69%
    06:00 +2°C° 0 mm 2 mps 763 mmHg 66%
    07:00 +3°C° 0 mm 2 mps 763 mmHg 64%
    08:00 +5°C° 0 mm 2 mps 763 mmHg 60%
    09:00 +5°C° 0 mm 3 mps 763 mmHg 56%
    10:00 +8°C° 0 mm 3 mps 763 mmHg 52%
    11:00 +8°C° 0 mm 4 mps 762 mmHg 48%
    12:00 +8°C° 0 mm 4 mps 762 mmHg 43%
    13:00 +10°C° 0 mm 4 mps 762 mmHg 39%
    14:00 +9°C° 0 mm 5 mps 761 mmHg 37%
    15:00 +9°C° 0 mm 5 mps 761 mmHg 35%
    16:00 +9°C° 0 mm 5 mps 760 mmHg 33%
    17:00 +8°C° 0 mm 4 mps 760 mmHg 39%
    18:00 +7°C° 0 mm 4 mps 761 mmHg 44%
    19:00 +6°C° 0 mm 4 mps 761 mmHg 49%
    20:00 +5°C° 0 mm 3 mps 761 mmHg 56%
    21:00 +5°C° 0 mm 2 mps 761 mmHg 63%
    22:00 +3°C° 0 mm 2 mps 761 mmHg 70%
    23:00 +4°C° 0 mm 1 mps 761 mmHg 71%

    24 April, Tuesday

    Time Temperature Precipitation Wind Pressure Humidity
    00:00 +4°C° 0 mm 1 mps 761 mmHg 72%
    01:00 +4°C° 0 mm 1 mps 761 mmHg 72%
    02:00 +3°C° 0 mm 1 mps 761 mmHg 73%
    03:00 +2°C° 0 mm 2 mps 761 mmHg 73%
    04:00 +2°C° 0 mm 2 mps 760 mmHg 73%
    05:00 +3°C° 0 mm 2 mps 760 mmHg 70%
    06:00 +3°C° 0 mm 2 mps 760 mmHg 67%
    07:00 +4°C° 0 mm 2 mps 760 mmHg 64%
    08:00 +5°C° 0 mm 3 mps 760 mmHg 55%
    09:00 +9°C° 0 mm 3 mps 760 mmHg 46%
    10:00 +11°C° 0 mm 4 mps 760 mmHg 37%
    11:00 +11°C° 0 mm 4 mps 759 mmHg 37%
    12:00 +12°C° 0 mm 4 mps 759 mmHg 36%
    13:00 +13°C° 0 mm 5 mps 759 mmHg 35%
    14:00 +12°C° 0 mm 4 mps 758 mmHg 36%
    15:00 +12°C° 0 mm 4 mps 757 mmHg 37%
    16:00 +12°C° 0 mm 4 mps 757 mmHg 38%
    17:00 +10°C° 0 mm 4 mps 756 mmHg 43%
    18:00 +9°C° 0 mm 3 mps 756 mmHg 49%
    19:00 +7°C° 0 mm 3 mps 756 mmHg 54%
    20:00 +5°C° 0 mm 3 mps 755 mmHg 58%
    21:00 +4°C° 0 mm 3 mps 755 mmHg 62%
    22:00 +3°C° 0 mm 3 mps 755 mmHg 66%
    23:00 +3°C° 0 mm 3 mps 755 mmHg 70%

    25 April, Wednesday

    Time Temperature Precipitation Wind Pressure Humidity
    00:00 +4°C° 0 mm 2 mps 754 mmHg 75%
    01:00 +3°C° 0 mm 2 mps 754 mmHg 79%
    02:00 +3°C° 0 mm 2 mps 753 mmHg 82%
    03:00 +3°C° 0 mm 2 mps 753 mmHg 85%
    04:00 +4°C° 0 mm 1 mps 753 mmHg 89%
    05:00 +4°C° 0 mm 2 mps 753 mmHg 85%
    06:00 +4°C° 0 mm 2 mps 753 mmHg 81%
    07:00 +5°C° 0 mm 2 mps 753 mmHg 77%
    08:00 +7°C° 0 mm 2 mps 753 mmHg 68%
    09:00 +9°C° 0 mm 2 mps 753 mmHg 59%
    10:00 +11°C° 0 mm 3 mps 753 mmHg 49%
    11:00 +12°C° 0 mm 3 mps 752 mmHg 46%
    12:00 +14°C° 0 mm 3 mps 752 mmHg 42%
    13:00 +16°C° 0 mm 3 mps 751 mmHg 38%
    14:00 +14°C° 0 mm 3 mps 751 mmHg 38%
    15:00 +14°C° 0 mm 3 mps 751 mmHg 38%
    16:00 +14°C° 0 mm 3 mps 750 mmHg 39%
    17:00 +13°C° 0 mm 2 mps 750 mmHg 45%
    18:00 +10°C° 0 mm 2 mps 750 mmHg 51%
    19:00 +8°C° 0 mm 2 mps 750 mmHg 57%
    20:00 +7°C° 0 mm 2 mps 750 mmHg 60%
    21:00 +6°C° 0 mm 2 mps 749 mmHg 62%
    22:00 +5°C° 0 mm 2 mps 749 mmHg 64%
    23:00 +5°C° 0 mm 2 mps 749 mmHg 63%
    Show more